Terug naar catalogus

OPS 4682 DEB

ActiefPO
NORAD 38402·DEBRIS·🇺🇸 United States

Gelanceerd Apr 3, 1965 vanaf Vandenberg Space Force Base

Loading…

Volgende Passages (komende 24 uur)

TLE

VersSource: Space-Track

Epoch: Sep 14, 2026, 14:24 UTC

1 38402U 65027DF  26257.60023429  .00000325  00000-0  11474-2 0  9994
2 38402  90.2457   7.0334 0026830  34.3813 325.9035 12.93926845598653

Volg OPS 4682 DEB in realtime met AllMySat

Download on the App Store